Location: Haieshausen
(51.8387°N, 9.9720°E)
Time: 03:49:38
(UTC+00:00)

Cosmos 1697 Rocket - Pass Details

Date: 14 July 2020
Orbit: 834 x 842 km, 71.0° (Epoch: 10 August)

Event Time Altitude Azimuth Distance (km) Brightness Sun altitude
Rises 02:07:42 0° 324° (NW) 3,399 6.1 -8.5°
Reaches altitude 10° 02:10:21 10° 315° (NW) 2,459 5.2 -8.2°
Maximum altitude 02:15:18 33° 254° (WSW) 1,385 3.4 -7.8°
Drops below altitude 10° 02:20:13 10° 192° (SSW) 2,440 4.6 -7.3°
Enters shadow 02:22:27 - 184° (S) 3,221 5.2 -7.1°
